Погода Варандей

Погода Варандей : погода сейчас, прогноз погоды и архив. Всё, что Вы хотите узнать о погоде Варандей!

Хотите узнать прогноз погоды Варандей? Тогда Вам сюда: Погода Варандей

Поиск расширенной информации на нашем сайте:

Другие новости

Новости СМИ2

Главная страница сайта

Новости сайта

03.07.2017

Напоминаем, что на нашем специализированном сайте Метеоцентр.Азия вы можете получить высокодетализированные автоматические прогнозы погоды по пунктам России, СНГ и мира в авиационном формате (включающие направление и скорость ветра, видимость, явления погоды, количество и форму облачности, нижнюю и верхнюю границу облачности).


Погода Варандей - сегодня

Время (UTC), дата Ветер
(°,м/с) 
Видим.   Явления Облачность Т
(°С)
Тd
(°С)
f(%) Тe
(°С)
Pmin
(гПа)
dP
(гПа)
Po
(мм)
O2
(г/м3)
Тmin Tmax R s Состояние
почвы
03 20.04.18 340 (С) 7{11}  10 км  позёмок  9/9 300 м 
[Sc]
-12.6 -13.8 91 -19  1002.8  0.3  751  319  -13    0.0  95  неравномерный
сухой снег
100% 
18 20.04.18 300 (СЗ) 20000 м  {ливн. осадки, снег}  3/0 верхняя 
[Ci fib]
-17.5 -18.6 91 -20  1006.2  -0.3  754  326           
21 20.04.18 300 (СЗ) 20000 м    3/0 верхняя 
[Ci fib]
-19.9 -21.3 89 -20  1005.7  -0.5  754  329           
03 21.04.18 310 (СЗ) 20000 м  {снег}  4/0 верхняя 
[Ci fib]
-15.7 -16.8 91 -19  1005.2  -0.6  753  323  -20.4    0.0  95  неравномерный
сухой снег
100% 
06 21.04.18 320 (СЗ) 10 км  {снег}  4/3 300 м кучево-дожд., верхняя 
[Cb calv|Ci fib]
-12.6 -13.6 92 -16  1005.3  0.1  753  319           
09 21.04.18 300 (СЗ) 10 км    4/4 300 м кучево-дожд. 
[Cb calv]
-11.3 -12.6 90 -14  1005.6  0.3  754  318           
12 21.04.18 300 (СЗ) 10 км    4/3 300 м верхняя 
[Cu med, cong|Cs]
-10.2 -11.8 88 -13  1006.3  0.7  754  317           
18 21.04.18 250 (З) 0500 м  переохл. туман{ливн. осадки}  3/0 верхняя 
[Ci fib]
-19.9 -21.2 89 -23  1006.8  0.6  754  329           
21 21.04.18 230 (ЮЗ) 0500 м  туман  ясно 
-22 -23.7 86 -22  1007  0.2  755  332           
00 22.04.18 220 (ЮЗ) 0500 м  туман  ясно 
-21.1 -22.8 86 -21  1007.5  0.5  755  331           
03 22.04.18 тихо ()   2000 м  в посл. час туман  ясно 
-19.5 -21.1 87 -20  1007.8  0.3  755  329  -22.4      95  неравномерный
сухой снег
100% 
06 22.04.18 160 (Ю) 20000 м  {туман}  9/0 верхняя 
[Ci fib]
-14.7 -15.9 91 -15  1008.1  0.3  755  323           
09 22.04.18 200 (Ю) 20000 м    9/0 верхняя 
[Ci fib]
-10.4 -11.6 91 -13  1008.6  0.5  756  318           
12 22.04.18 160 (Ю) 20000 м    4/4 300 м 
[Sc]
-9.7 -11.5 87 -11  1008.9  0.3  756  317           
18 22.04.18 220 (ЮЗ) 10 км  слаб. снег  10/10 2000 м 
[Ns]
-8.3 -8.7 97 -12  1010.1  0.5  757  315           
21 22.04.18 240 (ЮЗ) 20000 м  {снег}  9/9 300 м 
[Sc]
-7.6 -7.9 98 -11  1010.1  757  315           
03 23.04.18 200 (Ю) 4000 м  слаб. снег  10/10 2000 м 
[Ns]
-8.5 -8.9 97 -14  1009.9  -0.3  757  316  -11.3    0.0  95  неравномерный
сухой снег
100% 
06 23.04.18 200 (Ю) 9{11}  10 км  слаб. ливневой снег  8/8 300 м кучево-дожд. 
[Cb calv]
-7.5 -7.9 97 -14  1009.9  757  314           
09 23.04.18 210 (ЮЗ) 8{12}  10 км  позёмок{ливн. осадки}  9/9 300 м кучево-дожд. 
[Cb calv]
-4.4 -4.7 98 -10  1009.2  -0.7  756  310           
15 23.04.18 230 (ЮЗ) 9{12}  10 км  позёмок{снег}  9/9 360 м 
[Sc]
-3.4 -3.4 100 -9  1007.7  -0.9  755  308    -3.4  0.2     
18 23.04.18 250 (З) 7{11}  10 км  позёмок{снег}  9/9 300 м 
[Sc]
-3 -3 100 -7  1006.9  -0.8  755  308           
00 24.04.18 250 (З) 10 км    3/3 300 м верхняя 
[Sc|Ci fib]
-11.1 -11.6 96 -16  1007.6  0.8  755  318           
06 24.04.18 290 (З) 20000 м    ясно 
-7.1 -8.2 92 -11  1010  1.2  757  314           
18 24.04.18 200 (Ю) 20000 м  {снег}  1/0 верхняя 
[Ci fib]
-11.1 -11.6 96 -16  1009.4  -0.4  756  319           
21 24.04.18 200 (Ю) 20000 м    8/8 300 м 
[Sc]
-8.4 -9.3 93 -13  1007.9  -1.5  755  315           
Время (UTC), дата Ветер
(°,м/с) 
Видим.   Явления Облачность Т
(°С)
Тd
(°С)
f(%) Тe
(°С)
Pmin
(гПа)
dP
(гПа)
Po
(мм)
O2
(г/м3)
Тmin Tmax R s Состояние
почвы

Для получения пояснительной информации подведите курсор к названию столбца.

ПОГОДА Варандей - архив

Всё, что Вы хотите узнать о погоде Варандей - удобно и подробно!

Выберите нужную дату (начиная с 1 января 2015* года) и нажмите кнопку "Найти".
Будут отображены архивные сводки погоды по пункту Варандей, начиная с указанной даты.


Отображать данные в формате CSV (для использования в таблицах Excel)


Внимание! Наш архив погоды предназначен исключительно для личного некоммерческого использования в познавательных целях. Если Вам необходимы официальные справки о состоянии погоды (для производственных, юридических, коммерческих и т.п. целей), обращайтесь в органы Росгидромета.

*Примечание: данная дата относится к архиву по метеостанциям СССР (Россия, СНГ, Балтия).
Архив по метеостанциям Зарубежной Европы и Азии (кроме Китая) хранится 10 дней, по другим регионам земного шара (Китай, Африка, Америка, Австралия, Океания) - 1 день.

Варандей - район местоположения метеостанции


Название, широта, долгота, высота метеостанции:
Варандей 68.8°ш. 58°д. 5 м над ур. моря [Российская Федерация]

Дополнительная информация

В oтличие oт бoльшинства пoгoдных сайтoв мы публикуем пoдрoбную метеoинфoрмацию в детальнoм прoфессиoнальнoм фoрмате.

Характеристики температуры и влажнoсти вoздуха измеряются на высoте 2 м в тени вдали oт зданий и деревьев.
Скoрoсть ветра измеряется на высoте 10 м (на урoвне рoста челoвека скoрoсть ветра ниже в 1.5-2 раза). Если метеoстанция нахoдится в гoрoде или в лесу, тo скoрoсть ветра занижена на 2-4 м/с пo сравнению с oткрытым местoм. Скoрoсть ветра над акватoриями крупных рек и oзёр, а также на вершинах хoлмoв на 2-5 м/с выше, чем в oбычных услoвиях.
Атмoсфернoе давление в разных тoчках местнoсти мoжет значительнo oтличаться oт давления на метеoстанции, в зависимoсти oт услoвий рельефа (при пoдъёме на 10 м давление пoнижается примернo на 1 мм рт.ст.).